This demonstration page uses our WeatherBlox Daily Observations layout. Learn more.

Left ArrowRight Arrow

Hourly Observations for May 20, 2017

Temp ( °F °C ) Dew Point ( °F °C ) Humidity (%) Winds ( mph kmh ) Pressure ( in mb ) Visibility ( mi km ) Precip ( " mm )
12:15 am 00:15 Cloudy with Thunderstorms 44 6.6 42 5.8 95 95 N 18 30 29.97 1015 5 8 N/A
12:35 am 00:35 Cloudy with Mist and Fog 44 6.5 42 5.7 95 95 N 22 35 29.94 1014 5 8 N/A
12:55 am 00:55 Cloudy 44 6.5 42 5.7 95 95 N 15 24 29.94 1014 7 11 0.01 0.25
1:15 am 01:15 Cloudy 44 6.5 42 5.7 95 95 N 17 28 29.94 1014 10 16 N/A
1:35 am 01:35 Cloudy with Nearby Thunderstorms 44 6.5 42 5.7 95 95 N 16 26 29.94 1014 7 11 N/A
1:55 am 01:55 Cloudy with Mist and Fog 43 6.3 42 5.5 95 95 N 17 28 29.94 1014 3 5 N/A
2:15 am 02:15 Cloudy with Nearby Thunderstorms 43 6.3 42 5.5 95 95 N 10 17 29.94 1014 5 8 0.01 0.25
2:35 am 02:35 Cloudy with Light Rain 43 6 42 5.3 95 95 N 12 19 29.94 1014 3 5 0.02 0.51
2:55 am 02:55 Cloudy with Rain 43 6 42 5.3 95 95 NNW 9 15 29.94 1014 3 4 0.04 1.02
3:15 am 03:15 Cloudy with Rain 43 6 41 5.2 95 95 NNW 13 20 29.94 1014 3 4 0.04 1.02
3:35 am 03:35 Cloudy with Rain 42 5.8 41 5.1 95 95 NW 12 19 29.94 1014 3 5 0.06 1.52
3:55 am 03:55 Cloudy with Drizzle 43 6 41 5.2 95 95 NW 13 20 29.94 1014 4 6 0.06 1.52
4:15 am 04:15 Cloudy 42 5.8 41 5 95 95 NNW 14 22 29.94 1014 7 11 N/A
4:35 am 04:35 Cloudy with Rain 42 5.8 41 5 95 95 NNW 14 22 29.94 1014 10 16 0.01 0.25
4:55 am 04:55 Cloudy with Light Rain 42 5.8 41 5 95 95 NNW 13 20 29.94 1014 7 11 0.03 0.76
5:15 am 05:15 Cloudy with Rain 42 5.8 41 5 95 95 N 15 24 29.91 1013 5 8 0.05 1.27
5:35 am 05:35 Cloudy with Light Rain 42 5.8 41 5 95 95 NNW 16 26 29.88 1012 7 11 0.09 2.29
5:55 am 05:55 Cloudy 42 5.5 40 4.6 94 94 N 17 28 29.85 1011 10 16 0.09 2.29
6:15 am 06:15 Cloudy 42 5.4 40 4.4 93 93 NNW 16 26 29.88 1012 10 16 N/A
6:35 am 06:35 Cloudy 41 5.1 39 4 93 93 NNW 14 22 29.91 1013 10 16 N/A
6:55 am 06:55 Cloudy 41 5.2 39 4 92 92 NNW 13 20 29.91 1013 10 16 N/A
7:15 am 07:15 Cloudy 41 5.1 38 3.5 90 90 NNW 12 19 29.91 1013 10 16 N/A
7:35 am 07:35 Cloudy 41 5.1 38 3.5 90 90 NW 13 20 29.94 1014 10 16 N/A
7:55 am 07:55 Cloudy 41 5.1 38 3.2 88 88 NW 16 26 29.94 1014 10 16 N/A
8:15 am 08:15 Cloudy 40 4.2 37 2.6 89 89 NW 17 28 29.97 1015 10 16 N/A
8:35 am 08:35 Cloudy 39 4 37 2.5 90 90 NW 17 28 29.97 1015 7 11 N/A
8:55 am 08:55 Cloudy with Mist and Fog 39 4 37 2.5 90 90 NW 17 28 29.97 1015 3 5 N/A
9:15 am 09:15 Cloudy with Mist and Fog 39 3.8 37 2.5 91 91 NW 15 24 29.97 1015 4 6 N/A
9:35 am 09:35 Cloudy with Mist and Fog 39 3.8 37 2.5 91 91 NW 17 28 29.97 1015 4 6 N/A
9:55 am 09:55 Cloudy 40 4.2 37 2.7 90 90 NW 16 26 29.97 1015 7 11 N/A
10:15 am 10:15 Cloudy 40 4.5 37 2.7 88 88 NW 18 30 29.97 1015 10 16 N/A
10:35 am 10:35 Cloudy with Mist and Fog 40 4.3 37 2.7 89 89 NW 18 30 29.97 1015 5 8 N/A
10:55 am 10:55 Cloudy 40 4.5 37 3 90 90 NW 17 28 29.97 1015 7 11 N/A
11:15 am 11:15 Cloudy 40 4.7 37 3 89 89 NW 17 28 30.00 1016 10 16 N/A
11:35 am 11:35 Cloudy 41 5 37 3 87 87 NW 17 28 30.00 1016 10 16 N/A
11:55 am 11:55 Cloudy 41 5.2 38 3.3 88 88 NW 16 26 29.94 1014 10 16 N/A
12:15 pm 12:15 Cloudy 42 5.7 38 3.6 87 87 NW 18 30 29.94 1014 10 16 N/A
12:35 pm 12:35 Cloudy 42 5.5 37 2.9 84 84 NW 18 30 29.94 1014 10 16 N/A
12:55 pm 12:55 Cloudy 42 5.8 38 3.2 84 84 NW 21 33 29.97 1015 10 16 N/A
1:15 pm 13:15 Cloudy with Rain 42 5.7 38 3.4 85 85 NW 21 33 29.94 1014 7 11 N/A
1:35 pm 13:35 Cloudy with Light Rain 43 6 38 3.6 85 85 NW 18 30 29.94 1014 7 11 N/A
1:55 pm 13:55 Cloudy 44 6.5 38 3.6 82 82 NW 20 31 29.94 1014 10 16 N/A
2:15 pm 14:15 Cloudy 44 6.6 38 3.6 81 81 NW 20 31 29.97 1015 10 16 N/A
2:35 pm 14:35 Cloudy 44 6.5 38 3.1 79 79 WNW 20 31 29.97 1015 10 16 N/A
2:55 pm 14:55 Cloudy with Light Rain 44 6.5 38 3.4 81 81 NW 18 30 29.97 1015 10 16 N/A
3:15 pm 15:15 Cloudy 44 6.8 38 3.3 79 79 NW 20 31 29.97 1015 10 16 N/A
3:35 pm 15:35 Cloudy 44 6.8 38 3.4 79 79 WNW 16 26 29.97 1015 10 16 N/A
3:55 pm 15:55 Cloudy 45 7.1 37 3 75 75 WNW 16 26 29.97 1015 10 16 N/A
4:15 pm 16:15 Cloudy 45 7 38 3.1 76 76 NW 16 26 29.97 1015 10 16 N/A
4:35 pm 16:35 Cloudy 44 6.5 37 2.7 77 77 NW 16 26 29.97 1015 10 16 N/A
4:55 pm 16:55 Cloudy 43 6 38 3.2 82 82 WNW 20 31 29.97 1015 10 16 N/A
5:15 pm 17:15 Cloudy 42 5.5 38 3.1 85 85 WNW 17 28 30.03 1017 10 16 N/A
5:35 pm 17:35 Cloudy 42 5.8 37 3 82 82 WNW 17 28 30.00 1016 10 16 N/A
5:55 pm 17:55 Cloudy 43 6.3 38 3.2 81 81 WNW 20 31 30.00 1016 10 16 N/A
6:15 pm 18:15 Cloudy 44 6.5 38 3.1 79 79 WNW 16 26 30.00 1016 10 16 N/A
6:35 pm 18:35 Cloudy 44 6.5 37 2.7 77 77 WNW 18 30 30.00 1016 10 16 N/A
6:55 pm 18:55 Cloudy 44 6.4 37 2.5 76 76 NW 21 33 30.00 1016 10 16 N/A
7:15 pm 19:15 Cloudy 43 6 36 2 76 76 NW 21 33 30.00 1016 10 16 N/A
7:35 pm 19:35 Cloudy 42 5.8 36 2.4 79 79 NW 16 26 30.00 1016 10 16 N/A
7:55 pm 19:55 Cloudy 42 5.8 37 2.7 81 81 NW 17 28 30.00 1016 10 16 N/A
8:15 pm 20:15 Mostly Cloudy 42 5.7 37 2.7 81 81 WNW 17 28 30.06 1018 10 16 N/A
8:35 pm 20:35 Mostly Cloudy 42 5.6 37 2.5 81 81 NW 15 24 30.06 1018 10 16 N/A
8:55 pm 20:55 Mostly Cloudy 42 5.4 37 2.6 82 82 NW 10 17 30.06 1018 10 16 N/A
9:15 pm 21:15 Partly Cloudy 41 5.1 37 2.5 83 83 NW 9 15 30.06 1018 10 16 N/A
9:35 pm 21:35 Mostly Cloudy 41 5.2 37 2.5 83 83 NW 10 17 30.09 1019 10 16 N/A
9:55 pm 21:55 Mostly Cloudy 41 5 37 2.5 84 84 WNW 9 15 30.09 1019 10 16 N/A
10:15 pm 22:15 Partly Cloudy 40 4.6 37 2.5 86 86 NW 9 15 30.09 1019 10 16 N/A
10:35 pm 22:35 Partly Cloudy 40 4.3 37 2.5 88 88 NW 6 9 30.09 1019 10 16 N/A
10:55 pm 22:55 Mostly Cloudy 40 4.2 37 2.7 90 90 NW 5 7 30.12 1020 10 16 N/A
11:15 pm 23:15 Cloudy 40 4.5 37 2.8 89 89 WNW 5 7 30.12 1020 10 16 N/A
11:35 pm 23:35 Mostly Cloudy 39 4.1 36 2.4 89 89 WNW 6 9 30.12 1020 10 16 N/A
11:55 pm 23:55 Mostly Cloudy 39 4 36 2.2 88 88 WNW 5 7 30.12 1020 10 16 N/A

Powered by AerisWeather